Stündliche Wetter Holmistyy

Heute, 22 Juni, Dienstag

Zeit Temperatur Niederschläge Wind Luftdruck Luftfeuchtigkeit
00:00 +22°C° 0 mm 4 m/S 756 mmHg 42%
01:00 +22°C° 0 mm 4 m/S 756 mmHg 42%
02:00 +21°C° 0 mm 4 m/S 756 mmHg 41%
03:00 +21°C° 0 mm 4 m/S 756 mmHg 41%
04:00 +21°C° 0 mm 4 m/S 756 mmHg 45%
05:00 +21°C° 0 mm 4 m/S 756 mmHg 50%
06:00 +21°C° 0 mm 5 m/S 756 mmHg 54%
07:00 +23°C° 0 mm 5 m/S 756 mmHg 50%
08:00 +26°C° 0 mm 6 m/S 756 mmHg 47%
09:00 +29°C° 0 mm 6 m/S 756 mmHg 43%
10:00 +32°C° 0 mm 7 m/S 756 mmHg 40%
11:00 +33°C° 0 mm 7 m/S 756 mmHg 36%
12:00 +35°C° 0 mm 7 m/S 756 mmHg 33%
13:00 +36°C° 0 mm 7 m/S 755 mmHg 32%
14:00 +38°C° 0 mm 7 m/S 755 mmHg 30%
15:00 +39°C° 0 mm 6 m/S 755 mmHg 29%
16:00 +38°C° 0 mm 6 m/S 755 mmHg 33%
17:00 +36°C° 0 mm 5 m/S 754 mmHg 37%
18:00 +34°C° 0 mm 4 m/S 754 mmHg 41%
19:00 +32°C° 0 mm 4 m/S 754 mmHg 42%
20:00 +29°C° 0 mm 4 m/S 755 mmHg 43%
21:00 +27°C° 0 mm 3 m/S 755 mmHg 44%
22:00 +27°C° 0 mm 3 m/S 755 mmHg 43%
23:00 +26°C° 0 mm 3 m/S 755 mmHg 42%

Morgen, 23 Juni, Mittwoch

Zeit Temperatur Niederschläge Wind Luftdruck Luftfeuchtigkeit
00:00 +25°C° 0 mm 3 m/S 755 mmHg 41%
01:00 +25°C° 0 mm 3 m/S 755 mmHg 40%
02:00 +25°C° 0 mm 3 m/S 755 mmHg 39%
03:00 +24°C° 0 mm 3 m/S 755 mmHg 38%
04:00 +24°C° 0 mm 3 m/S 756 mmHg 41%
05:00 +24°C° 0 mm 2 m/S 756 mmHg 44%
06:00 +24°C° 0 mm 2 m/S 756 mmHg 47%
07:00 +26°C° 0 mm 3 m/S 756 mmHg 45%
08:00 +29°C° 0 mm 3 m/S 756 mmHg 42%
09:00 +31°C° 0 mm 3 m/S 756 mmHg 40%
10:00 +33°C° 0 mm 4 m/S 756 mmHg 37%
11:00 +35°C° 0 mm 5 m/S 756 mmHg 33%
12:00 +38°C° 0 mm 6 m/S 755 mmHg 30%
13:00 +38°C° 0 mm 6 m/S 755 mmHg 30%
14:00 +39°C° 0 mm 6 m/S 755 mmHg 29%
15:00 +40°C° 0 mm 6 m/S 754 mmHg 29%
16:00 +39°C° 0 mm 6 m/S 754 mmHg 31%
17:00 +38°C° 0 mm 6 m/S 754 mmHg 34%
18:00 +36°C° 0 mm 6 m/S 754 mmHg 36%
19:00 +34°C° 0 mm 6 m/S 754 mmHg 36%
20:00 +33°C° 0 mm 6 m/S 754 mmHg 35%
21:00 +30°C° 0 mm 7 m/S 755 mmHg 34%
22:00 +29°C° 0 mm 6 m/S 755 mmHg 35%
23:00 +28°C° 0 mm 5 m/S 755 mmHg 36%

übermorgen, 24 Juni, Donnerstag

Zeit Temperatur Niederschläge Wind Luftdruck Luftfeuchtigkeit
00:00 +27°C° 0 mm 5 m/S 755 mmHg 38%
01:00 +26°C° 0 mm 4 m/S 755 mmHg 39%
02:00 +25°C° 0 mm 4 m/S 756 mmHg 39%
03:00 +23°C° 0 mm 4 m/S 756 mmHg 40%
04:00 +24°C° 0 mm 3 m/S 756 mmHg 44%
05:00 +24°C° 0 mm 3 m/S 756 mmHg 47%
06:00 +24°C° 0 mm 3 m/S 757 mmHg 51%
07:00 +25°C° 0 mm 3 m/S 757 mmHg 47%
08:00 +27°C° 0 mm 3 m/S 757 mmHg 43%
09:00 +29°C° 0 mm 3 m/S 757 mmHg 40%
10:00 +31°C° 0 mm 3 m/S 757 mmHg 36%
11:00 +33°C° 0 mm 4 m/S 757 mmHg 32%
12:00 +35°C° 0 mm 5 m/S 757 mmHg 28%
13:00 +35°C° 0 mm 5 m/S 756 mmHg 28%
14:00 +36°C° 0 mm 5 m/S 756 mmHg 28%
15:00 +36°C° 0 mm 5 m/S 756 mmHg 29%
16:00 +35°C° 0 mm 4 m/S 756 mmHg 33%
17:00 +34°C° 0 mm 4 m/S 755 mmHg 36%
18:00 +33°C° 0 mm 4 m/S 755 mmHg 40%
19:00 +33°C° 0 mm 4 m/S 755 mmHg 37%
20:00 +32°C° 0 mm 5 m/S 755 mmHg 34%
21:00 +30°C° 0 mm 5 m/S 755 mmHg 30%
22:00 +29°C° 0 mm 5 m/S 755 mmHg 34%
23:00 +28°C° 0 mm 5 m/S 755 mmHg 37%

25 Juni, Freitag

Zeit Temperatur Niederschläge Wind Luftdruck Luftfeuchtigkeit
00:00 +27°C° 0 mm 5 m/S 755 mmHg 40%
01:00 +26°C° 0 mm 5 m/S 755 mmHg 41%
02:00 +25°C° 0 mm 4 m/S 755 mmHg 42%
03:00 +24°C° 0 mm 3 m/S 755 mmHg 42%
04:00 +24°C° 0 mm 3 m/S 755 mmHg 45%
05:00 +24°C° 0 mm 3 m/S 755 mmHg 48%
06:00 +24°C° 0 mm 3 m/S 755 mmHg 50%
07:00 +27°C° 0 mm 3 m/S 755 mmHg 46%
08:00 +29°C° 0 mm 3 m/S 755 mmHg 41%
09:00 +31°C° 0 mm 3 m/S 755 mmHg 36%
10:00 +34°C° 0 mm 3 m/S 755 mmHg 33%
11:00 +35°C° 0 mm 3 m/S 755 mmHg 31%
12:00 +36°C° 0 mm 2 m/S 755 mmHg 28%
13:00 +37°C° 0 mm 2 m/S 754 mmHg 28%
14:00 +37°C° 0 mm 2 m/S 754 mmHg 27%
15:00 +37°C° 0 mm 2 m/S 754 mmHg 27%
16:00 +36°C° 0 mm 2 m/S 754 mmHg 32%
17:00 +36°C° 0 mm 2 m/S 753 mmHg 36%
18:00 +35°C° 0 mm 2 m/S 753 mmHg 41%
19:00 +33°C° 0 mm 3 m/S 753 mmHg 44%
20:00 +30°C° 0 mm 3 m/S 753 mmHg 47%
21:00 +28°C° 0 mm 3 m/S 753 mmHg 51%
22:00 +27°C° 0 mm 3 m/S 753 mmHg 52%
23:00 +27°C° 0 mm 3 m/S 752 mmHg 53%

26 Juni, Samstag

Zeit Temperatur Niederschläge Wind Luftdruck Luftfeuchtigkeit
00:00 +26°C° 0 mm 3 m/S 752 mmHg 54%
01:00 +26°C° 0 mm 4 m/S 752 mmHg 56%
02:00 +26°C° 0 mm 4 m/S 752 mmHg 58%
03:00 +26°C° 0 mm 4 m/S 752 mmHg 60%
04:00 +26°C° 0 mm 4 m/S 752 mmHg 62%
05:00 +25°C° 0 mm 4 m/S 752 mmHg 65%
06:00 +25°C° 0 mm 4 m/S 752 mmHg 67%
07:00 +27°C° 0 mm 4 m/S 752 mmHg 61%
08:00 +29°C° 0 mm 4 m/S 752 mmHg 54%
09:00 +32°C° 0 mm 5 m/S 753 mmHg 48%
10:00 +33°C° 0 mm 5 m/S 752 mmHg 43%
11:00 +35°C° 0 mm 4 m/S 752 mmHg 39%
12:00 +36°C° 0 mm 4 m/S 752 mmHg 34%
13:00 +37°C° 0 mm 4 m/S 752 mmHg 33%
14:00 +37°C° 0 mm 3 m/S 752 mmHg 31%
15:00 +38°C° 0 mm 3 m/S 752 mmHg 30%
16:00 +37°C° 0 mm 3 m/S 751 mmHg 35%
17:00 +36°C° 0 mm 3 m/S 751 mmHg 40%
18:00 +35°C° 0 mm 3 m/S 751 mmHg 45%
19:00 +33°C° 0.4 mm 4 m/S 751 mmHg 52%
20:00 +30°C° 0.4 mm 5 m/S 752 mmHg 59%
21:00 +27°C° 0.4 mm 6 m/S 752 mmHg 66%
22:00 +26°C° 0.8 mm 5 m/S 752 mmHg 71%
23:00 +25°C° 0.8 mm 4 m/S 752 mmHg 77%

27 Juni, Sonntag

Zeit Temperatur Niederschläge Wind Luftdruck Luftfeuchtigkeit
00:00 +24°C° 0.8 mm 3 m/S 752 mmHg 82%
01:00 +22°C° 0.8 mm 3 m/S 752 mmHg 84%
02:00 +22°C° 0.8 mm 3 m/S 752 mmHg 86%
03:00 +22°C° 0.8 mm 3 m/S 753 mmHg 88%
04:00 +22°C° 0.7 mm 3 m/S 753 mmHg 87%
05:00 +22°C° 0.7 mm 4 m/S 753 mmHg 86%
06:00 +22°C° 0.7 mm 4 m/S 753 mmHg 85%
07:00 +25°C° 0.3 mm 4 m/S 753 mmHg 78%
08:00 +27°C° 0.3 mm 3 m/S 753 mmHg 71%
09:00 +29°C° 0.3 mm 3 m/S 753 mmHg 63%
10:00 +30°C° 0 mm 3 m/S 753 mmHg 59%
11:00 +31°C° 0 mm 3 m/S 753 mmHg 55%
12:00 +33°C° 0 mm 3 m/S 753 mmHg 51%
13:00 +33°C° 0 mm 3 m/S 753 mmHg 52%
14:00 +33°C° 0 mm 4 m/S 753 mmHg 53%
15:00 +33°C° 0 mm 4 m/S 753 mmHg 54%
16:00 +32°C° 1.5 mm 5 m/S 753 mmHg 61%
17:00 +29°C° 1.5 mm 5 m/S 753 mmHg 68%
18:00 +27°C° 1.5 mm 5 m/S 753 mmHg 76%
19:00 +26°C° 1 mm 4 m/S 753 mmHg 80%
20:00 +25°C° 1 mm 3 m/S 753 mmHg 84%
21:00 +24°C° 1 mm 1 m/S 753 mmHg 88%
22:00 +24°C° 0.1 mm 2 m/S 753 mmHg 89%
23:00 +24°C° 0.1 mm 2 m/S 753 mmHg 89%
Mehr zeigen

Wir brauchen deine Erlaubnis

Meteoprog und unser Service Anbieter werden persönliche Daten aufbewahren, so wie Cookies, Geräte Bezeichnung oder ähnliche Technologien von deinem Gerät und Prozess, so wie Persönliche Daten Inhalte und Werbungen, genauso wie social Media und den Verkehr zu analysieren.

  • Aufbewahrung und/oder Zugang zu deiner Geräte Informationen.

    Cookies, Geräte Bezeichnung oder andere Informationen, können aufbewahrt oder Zugang zu deinem Gerät erhalten, für den Grund, der oben angegeben wird.

  • Personalisierte Werbung und Inhalte, Messungen, Einblick in das Publikum und Produkt Entwicklung.

    Werbungen und Inhalte können personalisiert werden, basierend auf ein Profil. Mehr Daten können besser personalisierte Werbungen und Inhalte hinzufügen. Werbung und Inhalte können gezeigt und gemessen werden. Einblicke über das Publikum, welche die Werbung gesehen haben und den Inhalt, können abgeleitet werden. So wie Daten können genutzt werden, um es zu verbessern oder die Benutzer Erfahrung zu verbessern das System und die Software.

Wenn du “Ich stimme zu” klickst, erlaubst du uns, die Cookies zu benutzen die Geräte Bezeichnung, den Web oder ähnliche Technologien zu benutzen. Deine Settings, können in deinem Gerät bei deinem Browser geändert werden.

Für den bestimmten Zweck, berechtigten Interessen beruhen darauf, mehr als auf den Inhalt. Du kannst mehr darüber in unseren Privaten und Cookie Politik lesen.